Simultaneous Nadir Overpasses (SNOs) Predictions

Prediction of SNOs between METOP-B and NOAA-19 Satellite Orbit:

Table of predicted SNOs for the next 14.0 days since TLE Epoch: 10/21/2023
Index Date (METOP-B) Time (METOP-B) Lat,Lon (METOP-B) SZA (METOP-B ) Date (NOAA-19) Time (NOAA-19) Lat,Lon (NOAA-19) SZA (NOAA-19 ) Distance(km) Time Diff (sec)
1 10/29/2023 03:45:39 -80.72, -26.33 84.43 10/29/2023 03:44:32 -80.72, -26.36 84.45 0.46 67
2 10/29/2023 04:36:19 80.73, 141.10 95.60 10/29/2023 04:35:34 80.74, 141.23 95.60 2.31 45
3 10/29/2023 05:27:00 -80.73, -51.51 84.38 10/29/2023 05:26:30 -80.73, -51.60 84.40 1.56 30
4 10/29/2023 06:17:40 80.74, 115.93 95.65 10/29/2023 06:17:32 80.75, 115.99 95.66 1.31 8
5 10/29/2023 07:08:20 -80.76, -76.35 84.29 10/29/2023 07:08:27 -80.75, -76.48 84.31 2.66 7
6 10/29/2023 07:59:01 80.75, 90.75 95.70 10/29/2023 07:59:30 80.75, 90.76 95.71 0.48 29
7 10/29/2023 08:49:42 -80.75,-101.87 84.29 10/29/2023 08:50:25 -80.76,-101.72 84.25 2.87 43



Historial Predications of SNOs between METOP-B and NOAA-19
